Flag for Romania Weather past 2 weeks in Cluj-Napoca, Romania

Now
61 °F

Passing clouds.


Feels Like: 61 °F
Forecast: 43 / 72 °F
Wind: 5 mph from East

Location: Cluj Airport-Napoca

Current Time: Sep 18, 2014 at 11:20:26 AM

Latest Report: Sep 18, 2014 at 11:00 AM


Visibility: N/A

Pressure: 30.21 "Hg

Humidity: 55%

Dew point: 45 °F

Location of Cluj-NapocaLocation

Historic Weather in Cluj-Napoca — Graph

°F

Cluj-Napoca temperature yesterday

Maximum temperature yesterday: 72 °F (at 5:30 PM)
Minimum temperature yesterday: 45 °F (at 6:30 AM)
Average temperature yesterday: 59 °F

Past Weeks' High & Low Weather Summary

 TemperatureHumidityPressure
High82 °F (Sep 4, 2:30 PM)100% (Sep 9, 8:00 AM)30.21 "Hg (Sep 9, 8:00 AM)
Low45 °F (Sep 17, 6:30 AM)28% (Sep 12, 3:00 PM)29.92 "Hg (Sep 6, 3:30 PM)
Average66 °F66%30.02 "Hg
* Reported Sep 3 10:00 AM — Sep 18 10:00 AM, Cluj-Napoca, Weather by CustomWeather, © 2014

Note: Actual official high and low records may vary slightly from our data, if they occured in-between our weather recording intervals... More about our weather records

Advertising

Cluj-Napoca weather history for previous 24 hours

 ConditionsComfort  
Time TempWeatherWind HumidityBarometerVisibility
10:00 AM
Sep 18
57 °FSunny.No wind63%30.21 "Hg10 mi
9:30 AM54 °FSunny.No wind67%30.21 "Hg10 mi
9:00 AM50 °FSunny.2 mph76%30.21 "Hg10 mi
8:30 AM48 °FSunny.No wind82%30.21 "Hg10 mi
8:00 AM46 °FClear.2 mph87%30.21 "Hg10 mi
7:30 AM45 °FClear.No wind93%30.21 "Hg10 mi
7:00 AM45 °FClear.No wind93%30.21 "Hg10 mi
6:30 AM45 °FClear.2 mph93%30.18 "Hg10 mi
5:30 AM46 °FClear.2 mph87%30.18 "Hg10 mi
5:00 AM46 °FClear.2 mph87%30.18 "Hg10 mi
4:00 AM46 °FClear.No wind93%30.18 "Hg10 mi
3:00 AM48 °FCool.No wind87%30.18 "HgN/A
2:00 AM48 °FClear.2 mph87%30.18 "Hg10 mi
1:00 AM50 °FClear.5 mph82%30.18 "Hg10 mi
12:00 AM52 °FPassing clouds.No wind82%30.18 "HgN/A
11:30 PM
Sep 17
54 °FPassing clouds.2 mph77%30.18 "HgN/A
11:00 PM52 °FPassing clouds.No wind77%30.15 "HgN/A
10:30 PM52 °FClear.No wind82%30.15 "Hg10 mi
10:00 PM54 °FClear.No wind72%30.15 "Hg10 mi
9:30 PM55 °FClear.No wind72%30.12 "Hg10 mi
9:00 PM55 °FClear.No wind67%30.12 "Hg10 mi
8:00 PM59 °FSunny.2 mph59%30.12 "Hg10 mi
7:30 PM64 °FSunny.2 mph46%30.12 "Hg10 mi
7:00 PM68 °FPassing clouds.5 mph38%30.12 "HgN/A
6:30 PM70 °FSunny.2 mph33%30.12 "Hg10 mi
6:00 PM70 °FSunny.7 mph33%30.12 "Hg10 mi
5:30 PM72 °FPassing clouds.5 mph31%30.12 "HgN/A
5:00 PM70 °FPassing clouds.7 mph33%30.12 "HgN/A
4:30 PM70 °FSunny.9 mph33%30.12 "Hg10 mi
4:00 PM70 °FSunny.5 mph35%30.12 "Hg10 mi
3:30 PM70 °FPassing clouds.7 mph33%30.12 "HgN/A
3:00 PM70 °FPassing clouds.7 mph35%30.12 "HgN/A
2:30 PM70 °FPassing clouds.9 mph35%30.12 "HgN/A
2:00 PM70 °FPassing clouds.5 mph35%30.15 "HgN/A
1:30 PM68 °FPassing clouds.9 mph38%30.15 "HgN/A
1:00 PM68 °FPassing clouds.9 mph40%30.15 "HgN/A
12:30 PM66 °FPassing clouds.9 mph40%30.15 "HgN/A
12:00 PM66 °FSunny.12 mph43%30.18 "Hg10 mi
11:30 AM64 °FSunny.12 mph46%30.18 "Hg10 mi
11:00 AM63 °FSunny.7 mph52%30.18 "Hg10 mi
Weather by CustomWeather, © 2014

See weather overviewHow to use our weather pages